FENGYUN 1C DEB, 31311

Orbit data source: Space-Track

FENGYUN 1C DEB, 31311 is space debris in SSO originally from a launch on Mon, 10 May 1999 UTC launched from the Taiyaun Space Center, China (TSC). Fengyun 1C debris stems from the Chinese weather satellite Fengyun-1C, which was intentionally destroyed by a Chinese anti-satellite missile in 2007. This event dramatically increased the amount of space debris, with thousands of trackable fragments posing hazards to satellites and human spaceflight. The Fengyun 1C debris cloud has become a focal point in discussions about space sustainability and the need for international regulations to prevent the creation of new debris.

Loading next visibility...
Identifier
31311, 1999-025BPP
Orbit
SSO
Country
Flag of CNCN / PRC
Related business
Manufacturer
Unknown
Mission
Spacecraft
Bus & Motor
Unknown
Mass
Unknown
Launch date (UTC)
1999-05-10 (27 years ago)
Launch vehicle
Unknown
Launch site
Taiyaun Space Center, China (TSC)
Object type
Payload
Rocket body
Debris
Shape & HBR
Unknown shape, 0.1 m
Radar Cross Section
Medium (>0.1 m² and <1 m²)

Expand to show TLE details & history
Last TLE update: 1 day ago

TLE from 1 day ago
0 FENGYUN 1C DEB
1 31311U 99025BPP 26207.24469542  .00003530  00000-0  13413-2 0  9992
2 31311  98.8458 297.5029 0020487 141.5257 243.7396 14.31528843994468
Epoch: 2026-07-26T05:52Z
TLE epoch observation values (Epoch: 2026-07-26T05:52:21.684Z)
Latitude
24.76524°
Longitude
-98.62804°
Altitude
796.148 km
Speed
7.454 km/s
True Right ascension
19h 33m 37s
True Declination
24° 38' 07"
Sunlit
Object was in full shadow at epoch
Visualization orbit readout
Latitude
Unknown
Longitude
Unknown
Altitude
Unknown
Speed
Unknown
Apparent Right ascension
Unknown
Apparent Declination
Unknown
Sunlit
N/A
Visualization observer readout
Local Sidereal Time
20:03:25
Azimuth
Unknown
Elevation
Unknown
Doppler factor
Unknown
Orbital elements
Apogee altitude
798.447 km
Perigee altitude
769.102 km
Semi-major axis
7,161.912 km
Eccentricity
0.00205
Inclination
98.8458°
RAAN
297.5029°
Arg. of periapsis
141.5257°
True anomaly
243.5293°
Mean anomaly
243.7396°
Eccentric anomaly
243.63443°
Mean motion
3.58096 °/min
Orbital period
100.53 mins
BSTAR
0.0013413
Loading maneuver chart data...
Computing Atmospheric mass density...
Loading historical data...
Loading historical data...
Loading historical data...
Loading historical data...
Loading historical data...
Loading historical data...
Loading historical data...

Documentation

Showing up to 5 results
|